www.pogodaiklimat.ru

Погода и климат >> Архив погоды >> Россия >> Нижегородская область >> Лукоянов


АРХИВ ПОГОДЫ в Лукоянове

Время (UTC), дата Ветер
(напр.,м/с)
 
Видим.   Явления Облачность Т
(С)
Тd
(С)
f
(%)
Тe
(С)
Тes
(С)
Комфортность P
(гПа)
Po
(гПа)
Тmin
(С)
Tmax
(С)
R
(мм)
R24
(мм)
S
(см)
15 15.01 Ю 3-7
{8}
10 км слаб. снег 10/0
[As op]
-1.0 -2.0 93 -6 -6 999.2 972.2 -1.0 1
18 15.01 Ю 4-7
{9}
10 км {снег} 10/10 600 м
[Cb cap]
+0.4 -2.1 83 -5 -5 1000.2 973.3
21 15.01 ЮЗ 2-4
{8}
10 км ясно -2.0 -4.8 81 -6 -6 1002.0 974.8
00 16.01 Ю 1-2
{4}
10 км ясно -3.2 -4.9 88 -6 -6 1002.1 974.8
03 16.01 В 1-2
{2}
4000 м слаб. снег 10/0
[As op]
-3.0 -3.4 97 -5 -5 1000.4 973.1 -3.2 0.3 32
06 16.01 штиль 0
{2}
4000 м слаб. снег 10/0
[As op]
-3.1 -3.5 97 -4 -4 999.0 971.8 -3.3
09 16.01 С 2-4
{5}
2000 м снег 10/0
[As op]
-3.3 -4.0 95 -8 -7 997.3 970.1
12 16.01 СЗ 3-5
{5}
2000 м снег 10/0
[As op]
-4.0 -4.5 96 -10 -10 995.6 968.4
15 16.01 СЗ 3-5
{6}
2000 м снег 10/0
[As op]
-4.5 -5.1 96 -10 -10 996.3 969.0 -2.9 8
18 16.01 З 2-4
{7}
2000 м слаб. снег 10/0
[As op]
-5.4 -6.1 95 -10 -10 998.9 971.5
21 16.01 З 4-8
{9}
2000 м слаб. снег 10/0
[As op]
-6.5 -7.3 94 -13 -13 1001.3 973.7
00 17.01 З 4-8
{9}
10 км {снег} 10/0
[As op]
-8.4 -9.4 92 -15 -15 1004.5 976.6
03 17.01 ЮЗ 2-5
{8}
10 км 10/0
[As op]
-8.6 -9.7 92 -13 -13 1006.2 978.3 -8.6 2 41
06 17.01 Ю 3-6
{7}
10 км 10/0
[As op]
-7.8 -9.2 90 -14 -14 1008.3 980.3 -9.0
09 17.01 Ю 3-6
{8}
10 км {ливн. осадки} 10/3 600 м
[Cb cap Ac und]
-6.6 -8.6 86 -12 -12 1008.6 980.8
12 17.01 ЮЗ 4-7
{8}
10 км 10/0
[Ac und]
-5.8 -8.0 84 -12 -12 1008.6 980.8
15 17.01 ЮЗ 4-8
{9}
10 км 10/0
[As op]
-5.4 -7.2 87 -12 -12 1008.5 980.8 -5.4 0.0
18 17.01 Ю 5-10
{11}
10 км позёмок 10/0
[As op]
-6.4 -8.7 84 -14 -14 1007.3 979.6
21 17.01 Ю 5-10
{11}
4000 м слаб. снег {метель} 10/0
[As op]
-6.1 -7.2 92 -14 -14 1005.4 977.7
00 18.01 Ю 6-12
{14}
10 км слаб. снег {метель} 10/0
[As op]
-5.1 -7.2 85 -13 -13 1003.1 975.6
03 18.01 ЮЗ 6-13
{16}
10 км позёмок {снег} 10/0
[As op]
-5.0 -7.1 85 -13 -13 1002.7 975.2 -6.5 0.6 39
06 18.01 ЮЗ 6-12
{13}
10 км позёмок {снег} 10/0
[As op]
-3.8 -5.0 91 -11 -11 1004.0 976.6
09 18.01 ЮЗ 5-11
{12}
10 км позёмок 10/0
[As op]
-2.7 -4.3 89 -9 -9 1005.6 978.2
12 18.01 ЮЗ 5-11
{12}
10 км позёмок 10/0
[Ac As]
-1.8 -3.9 86 -8 -8 1006.3 978.9
15 18.01 ЮЗ 4-9
{11}
10 км {метель} 10/0
[Ac und]
-1.6 -3.3 88 -7 -7 1007.4 980.1 -1.6
18 18.01 Ю 3-8
{9}
10 км {метель} 10/0
[As op]
-1.4 -2.5 92 -6 -6 1006.7 979.4
21 18.01 Ю 4-9
{11}
10 км позёмок 10/0
[As op]
-0.8 -1.5 95 -7 -7 1005.0 977.9
00 19.01 Ю 6-12
{12}
4000 м слаб. снег {метель} 10/0
[As op]
-0.4 -1.0 96 -7 -7 1004.1 977.0
03 19.01 ЮЗ 5-9
{12}
10 км позёмок {снег} 10/0
[As op]
+0.2 -0.9 92 -6 -6 1004.0 977.0 -1.6 0.2 34
06 19.01 ЮЗ 3-7
{9}
10 км {снег, метель} 10/0
[Ac As]
+0.4 -2.1 83 -4 -4 1004.8 977.8
09 19.01 З 4-9
{11}
10 км позёмок 10/10 600 м
[Cb cap]
-2.9 -5.6 82 -9 -9 1007.7 980.2
12 19.01 З 3-6
{9}
20 км {метель} 10/0
[Ci fib]
-4.1 -8.7 70 -9 -9 1009.2 981.6
15 19.01 З 2-5
{6}
10 км ясно -7.7 -10.3 82 -12 -12 1011.0 983.0 +0.4 0.0
18 19.01 ЮЗ 2-3
{5}
10 км ясно -10.0 -11.7 87 -15 -15 1011.9 987.6
21 19.01 ЮЗ 2-3
{4}
10 км ясно -10.5 -11.8 90 -15 -15 1012.8 984.5
00 20.01 З 2-4
{5}
10 км 10/0
[Ac und]
-10.4 -11.7 90 -15 -15 1013.5 985.2
03 20.01 З 2-3
{5}
10 км {ливн. осадки} 10/3 600 м
[Cb cap Ac und]
-9.8 -11.0 91 -14 -14 1014.8 986.4 -11.7 0.0 34
06 20.01 З 2-4
{6}
20 км {ливн. осадки} 4/4 600 м
[Cb cap]
-11.2 -12.5 90 -16 -16 1016.8 988.2
09 20.01 ЮЗ 2-4
{7}
20 км 3/0
[Ac trans]
-8.4 -11.2 80 -13 -12 1016.9 988.7
12 20.01 ЮЗ 4-8
{8}
20 км 6/6 1000 м
[Sc]
-7.2 -11.1 74 -14 -14 1015.9 987.8
15 20.01 ЮЗ 4-7
{8}
10 км ясно -7.1 -10.9 74 -14 -14 1014.7 986.6 -6.9 0.0
18 20.01 ЮЗ 4-8
{9}
10 км 10/0
[Cs]
-8.0 -11.6 75 -15 -15 1013.6 985.5
21 20.01 ЮЗ 3-6
{8}
10 км 10/0
[As op]
-7.8 -10.5 81 -14 -14 1013.3 985.2
00 21.01 Ю 4-8
{9}
10 км 10/0
[As op]
-7.6 -9.8 84 -14 -14 1012.4 984.4
03 21.01 ЮЗ 3-7
{9}
10 км 10/0
[As op]
-7.5 -9.7 84 -13 -13 1011.5 983.5 -8.1 34
06 21.01 ЮЗ 5-8
{9}
10 км 10/0
[As op]
-8.7 -10.6 86 -16 -16 1011.3 983.2 -8.7
09 21.01 ЮЗ 4-8
{9}
10 км слаб. снег 10/0
[As op]
-8.5 -11.3 80 -15 -15 1010.9 982.8
12 21.01 ЮЗ 3-4
{9}
4000 м слаб. снег 10/0
[As op]
-8.8 -11.2 83 -15 -15 1009.5 981.4
15 21.01 ЮЗ 2-3
{5}
10 км {снег} 10/0
[Ac und]
-10.2 -11.5 90 -15 -15 1008.8 980.6 -7.5 1
18 21.01 З 2-3
{4}
10 км {снег} 3/0
[Ac trans]
-11.8 -13.1 90 -16 -16 1009.0 980.6
21 21.01 З 1-3
{3}
10 км слаб. снег 10/0
[As op]
-12.6 -13.9 90 -15 -15 1009.5 981.1
00 22.01 З 2-3
{6}
10 км {снег} 3/0
[Ci fib]
-14.4 -15.7 90 -19 -19 1010.6 982.0
03 22.01 З 2-3
{4}
10 км ясно -16.8 -18.7 85 -22 -22 1012.0 983.0 -16.8 0.3 35
06 22.01 З 2-3
{4}
10 км слаб. снег 10/0
[As op]
-16.6 -18.7 84 -22 -22 1013.6 984.5 -17.2
09 22.01 З 3-4
{5}
10 км {снег} 5/0
[Ci fib]
-15.2 -17.2 85 -22 -21 1014.7 985.8
12 22.01 З 2-4
{5}
20 км {снег} 3/0
[Ci fib]
-15.6 -18.3 80 -21 -20 1015.8 986.9

 

Местоположение метеостанции Лукоянов (Нижегородская область, Россия): широта 55.03 долгота 44.50 высота над уровнем моря 219 м.

В архиве по умолчанию представлена погода в Лукоянове за последнюю неделю. Архивные данные за месяц целиком и за предыдущие месяцы, начиная с января 2011 года, Вы можете получить, выбрав интересующий диапазон дат из раскрывающегося списка и нажав кнопку "Ввод!".


*Определитесь, кто Вы:
робот инопланетянин человек

Внимание! Время в таблицах - всемирное. Для получения местного времени необходимо прибавить поправку, которая равна 3 ч.

Смотрите также архив погоды в соседних городах и на ближайших метеорологических станциях:

Погода в Большом Болдино (Нижегородская область, Россия) (52 км)
Погода в Арзамасе (Нижегородская область, Россия) (59 км)
Погода в Краснослободске (Мордовия, Россия) (82 км)
Погода в Сергаче (Нижегородская область, Россия) (84 км)
Погода в Дальнем Константиново (Нижегородская область, Россия) (90 км)
Погода в Темникове (Мордовия, Россия) (93 км)
Погода в Саранске (Мордовия, Россия) (111 км)
Погода в Лысково (Нижегородская область, Россия) (114 км)
Погода в Порецком (Чувашия, Россия) (118 км)
Погода в Инсаре (Мордовия, Россия) (129 км)

Пояснения к столбцам:

Ветер - указаны скорость ветра в м/с - средняя за 10 мин, порывы в срок и между сроками (в фигурных скобках) и направление, откуда дует ветер: С - северный, СВ - северо-восточный, В - восточный, ЮВ - юго-восточный, Ю - южный, ЮЗ - юго-западный, З - западный, СЗ - северо-западный.
Видимость - горизонтальная дальность видимости в метрах или километрах. При видимости от 1 до 10 км при отсутствии осадков обычно наблюдается дымка, при ухудшении видимости до 1 км и менее - туман. В сухую погоду видимость может ухудшаться дымом, пылью или мглою.
Явления - указаны атмосферные явления, наблюдавшиеся в срок или в последний час перед сроком; фигурными скобками обозначены явления, наблюдавшиеся между сроками (за 1-3 часа до срока); квадратными скобками обозначены град или гололедные отложения с указанием их диаметра в мм.
Облачность - указаны через наклонную черту общая и нижняя облачность в баллах и высота нижней границы облаков в метрах; квадратными скобками обозначены формы облаков: Ci - перистые, Cs - перисто-слоистые, Cc - перисто-кучевые, Ac - высококучевые, As - высокослоистые, Sc - слоисто-кучевые, Ns - слоисто-дождевые, Cu - кучевые, Cb - кучево-дождевые. Подробнее классификацию облаков см. в Атласе облаков (PDF).
T - Температура воздуха - температура, измеренная на высоте 2 м над землей.
Td - Температура точки росы - температура, при понижении до которой содержащийся в воздухе водяной пар достигнет насыщения.
f - Относительная влажность воздуха - влажноcть воздуха, измеренная на высоте 2 м над землей.
Te - Эффективная температура - температура, которую ощущает одетый по сезону человек в тени. Характеристика душности погоды. При расчете учитывается влияние влажности воздуха и скорости ветра на теплоощущения человека.
Tes - Эффективная температура на солнце - температура, которую ощущает человек, с поправкой на солнечный нагрев. Характеристика знойности погоды. Зависит от высоты солнца над горизонтом, облачности и скорости ветра. Ночью, в пасмурную погоду, а также при ветре 12 м/с и более поправка равна нулю.
P - Атмосферное давление - приведенное к уровню моря атмосферное давление.
Po - Атмосферное давление - измеренное на уровне метеостанции атмосферное давление.
Tmin - Минимальная температура - минимум температуры воздуха на высоте 2 м над землей.
Tmax - Максимальная температура - максимум температуры воздуха на высоте 2 м над землей.
R - Количество осадков - Количество выпавших осадков за период времени, мм. При наведении курсора мыши на число - период времени, за который выпало указанное количество осадков.
R24 - Количество осадков - Количество выпавших осадков за 24 часа, мм.
S - Снежный покров - Высота снежного покрова, см. При наведении курсора мыши на число - состояние снежного покрова и степень покрытия местности в баллах.